EW1931 Weather Reports


Display with metric or nautical units.
time (UTC)temp
F
wind
direction
speed
MPH
gust
MPH
rain 1hr
in
rain 24hr
in
rain mn
in
humidity
%
barometer
mb
20260507163031 62 200 6.0 11.0 0.00 0.00 0.00 42 924.0
20260507161510 60 248 4.0 8.0 0.00 0.00 0.00 45 924.2
20260507160006 57 231 6.0 9.0 0.00 0.00 0.00 47 924.3
20260507154551 55 221 5.0 10.0 0.00 0.00 0.00 50 924.3
20260507153042 53 198 6.0 8.0 0.00 0.00 0.00 51 924.4
20260507151520 52 183 7.0 10.0 0.00 0.00 0.00 48 924.6
20260507150018 51 180 6.0 9.0 0.00 0.00 0.00 49 924.6
20260507144602 50 5 2.0 6.0 0.00 0.00 0.00 50 924.8
20260507143114 49 15 3.0 8.0 0.00 0.00 0.00 50 924.7
20260507141550 49 21 9.0 12.0 0.00 0.00 0.00 50 924.8
20260507140040 49 335 7.0 11.0 0.00 0.00 0.00 52 924.7
20260507134520 51 355 9.0 12.0 0.00 0.00 0.00 52 924.7
20260507133016 48 311 8.0 11.0 0.00 0.00 0.00 51 924.3
20260507131555 47 309 6.0 9.0 0.00 0.00 0.00 50 924.4
20260507130052 46 19 3.0 10.0 0.00 0.00 0.00 52 924.3
20260507124531 44 323 9.0 12.0 0.00 0.00 0.00 54 924.4
20260507123037 44 296 8.0 11.0 0.00 0.00 0.00 54 924.2
20260507121511 44 300 8.0 12.0 0.00 0.00 0.00 55 924.1
20260507120026 42 309 8.0 11.0 0.00 0.00 0.00 58 923.9
20260507114558 42 310 8.0 10.0 0.00 0.00 0.00 57 923.9
20260507113053 42 306 7.0 11.0 0.00 0.00 0.00 55 923.8
20260507111531 43 286 6.0 11.0 0.00 0.00 0.00 55 923.7
20260507110036 44 288 7.0 9.0 0.00 0.00 0.00 55 923.8
20260507104515 44 267 7.0 10.0 0.00 0.00 0.00 56 923.7
20260507103013 44 223 8.0 10.0 0.00 0.00 0.00 56 923.8
20260507101559 43 244 7.0 10.0 0.00 0.00 0.00 58 923.7
20260507100050 44 221 7.0 10.0 0.00 0.00 0.00 57 923.4
20260507094532 44 355 4.0 6.0 0.00 0.00 0.00 56 923.5
20260507093030 44 19 7.0 10.0 0.00 0.00 0.00 57 923.6
20260507091510 44 13 8.0 10.0 0.00 0.00 0.00 57 923.5
20260507090009 44 9 8.0 11.0 0.00 0.00 0.00 56 923.3
20260507084555 44 26 7.0 10.0 0.00 0.00 0.00 57 923.1
20260507083051 44 10 6.0 10.0 0.00 0.00 0.00 58 923.1
20260507081542 43 37 6.0 9.0 0.00 0.00 0.00 59 923.2
20260507080036 43 36 7.0 10.0 0.00 0.00 0.00 59 923.1
20260507074538 44 23 6.0 7.0 0.00 0.00 0.00 58 923.0
20260507073030 47 35 5.0 7.0 0.00 0.00 0.00 55 923.1
20260507071535 47 80 4.0 5.0 0.00 0.00 0.00 55 923.1
20260507070033 48 86 5.0 8.0 0.00 0.00 0.00 55 923.1
20260507064537 49 47 7.0 13.0 0.00 0.00 0.00 55 923.1
20260507063027 52 51 11.0 16.0 0.00 0.00 0.00 49 923.0
20260507061533 54 66 12.0 18.0 0.00 0.00 0.00 47 923.3
20260507060009 55 73 6.0 14.0 0.00 0.00 0.00 46 923.2
20260507054532 56 74 14.0 17.0 0.00 0.00 0.00 35 922.7
20260507053039 55 79 12.0 14.0 0.00 0.00 0.00 36 922.7
20260507051538 54 66 6.0 16.0 0.00 0.00 0.00 36 922.8
20260507050021 53 75 9.0 14.0 0.00 0.00 0.00 37 922.6
20260507044519 53 65 8.0 8.0 0.00 0.00 0.00 36 922.8
20260507043002 54 67 6.0 9.0 0.00 0.00 0.00 36 922.8
20260507041501 55 83 1.0 5.0 0.00 0.00 0.00 33 923.0
20260507040043 55 107 6.0 8.0 0.00 0.00 0.00 33 923.1
20260507034557 55 307 2.0 5.0 0.00 0.00 0.00 33 923.3
20260507033025 55 94 1.0 6.0 0.00 0.00 0.00 33 922.8
20260507031524 54 78 6.0 8.0 0.00 0.00 0.00 36 922.5
20260507030008 54 86 8.0 10.0 0.00 0.00 0.00 36 922.4
20260507024508 56 84 9.0 10.0 0.00 0.00 0.00 34 922.3
20260507023007 58 82 4.0 10.0 0.00 0.00 0.00 34 922.4
20260507021506 61 107 6.0 8.0 0.00 0.00 0.00 28 922.3
20260507020005 62 100 2.0 7.0 0.00 0.00 0.00 28 922.4
20260507014505 62 97 6.0 8.0 0.00 0.00 0.00 28 922.5
20260507013006 64 81 7.0 9.0 0.00 0.00 0.00 28 922.6
20260507011504 66 65 4.0 8.0 0.00 0.00 0.00 23 922.6
20260507010048 68 53 5.0 10.0 0.00 0.00 0.00 22 922.8
20260507004542 69 19 6.0 12.0 0.00 0.00 0.00 21 922.8
20260507003029 70 309 3.0 5.0 0.00 0.00 0.00 21 922.8
20260507001530 70 288 5.0 6.0 0.00 0.00 0.00 22 923.0
20260507000029 69 248 6.0 9.0 0.00 0.00 0.00 21 923.0
20260506234543 69 253 7.0 13.0 0.00 0.00 0.00 21 923.1
20260506233023 70 304 10.0 13.0 0.00 0.00 0.00 21 923.3
20260506231520 70 317 10.0 14.0 0.00 0.00 0.00 21 923.5
20260506230019 70 263 8.0 14.0 0.00 0.00 0.00 19 923.7
20260506224525 69 320 7.0 13.0 0.00 0.00 0.00 20 924.0
20260506223059 69 55 3.0 14.0 0.00 0.00 0.00 20 924.2
20260506221553 68 242 6.0 14.0 0.00 0.00 0.00 20 924.5
20260506220040 68 301 11.0 17.0 0.00 0.00 0.00 21 924.7
20260506214529 67 273 7.0 18.0 0.00 0.00 0.00 21 924.8
20260506213009 67 260 4.0 19.0 0.00 0.00 0.00 22 925.1
20260506211513 66 296 12.0 20.0 0.00 0.00 0.00 22 925.3
20260506210047 65 293 10.0 14.0 0.00 0.00 0.00 23 925.5
20260506204545 65 340 2.0 10.0 0.00 0.00 0.00 22 925.6
20260506203025 63 229 5.0 18.0 0.00 0.00 0.00 23 925.9
20260506201521 63 263 9.0 20.0 0.00 0.00 0.00 23 926.2
20260506200003 62 225 7.0 21.0 0.00 0.00 0.00 23 926.4
20260506194600 61 298 4.0 17.0 0.00 0.00 0.00 23 926.6
20260506193038 60 231 13.0 17.0 0.00 0.00 0.00 23 927.0
20260506191533 59 222 9.0 12.0 0.00 0.00 0.00 24 927.2
20260506190012 58 192 9.0 23.0 0.00 0.00 0.00 24 927.6
20260506184510 58 178 11.0 17.0 0.00 0.00 0.00 24 927.8
20260506183043 57 186 3.0 16.0 0.00 0.00 0.00 24 928.0
20260506181557 55 248 5.0 14.0 0.00 0.00 0.00 25 928.3
20260506180021 55 199 10.0 21.0 0.00 0.00 0.00 26 928.5
20260506174516 54 226 7.0 17.0 0.00 0.00 0.00 28 928.9
20260506173122 53 180 8.0 16.0 0.00 0.00 0.00 30 929.2
20260506171602 53 224 5.0 13.0 0.00 0.00 0.00 31 929.5
20260506170033 52 229 9.0 13.0 0.00 0.00 0.00 35 929.5
20260506164530 51 153 8.0 15.0 0.00 0.00 0.00 35 929.7